• In United Kingdom
  • List of Countries
  • For 7 days
  • Water Temperature
  • Satellite Maps
  • Weather Map
  • Weather Widgets
  • user-avatar
    Login

    Hourly Weather Fier

    Today, 19 April, Thursday

    Time Temperature Precipitation Wind Pressure Humidity
    00:00 +18°C° 0 mm 2 mps 766 mmHg 80%
    01:00 +18°C° 0 mm 2 mps 765 mmHg 80%
    02:00 +18°C° 0 mm 2 mps 765 mmHg 80%
    03:00 +17°C° 0 mm 2 mps 765 mmHg 81%
    04:00 +17°C° 0 mm 2 mps 765 mmHg 81%
    05:00 +18°C° 0 mm 2 mps 765 mmHg 79%
    06:00 +19°C° 0 mm 2 mps 766 mmHg 76%
    07:00 +21°C° 0 mm 2 mps 766 mmHg 72%
    08:00 +24°C° 0.1 mm 2 mps 766 mmHg 64%
    09:00 +25°C° 0.1 mm 2 mps 766 mmHg 57%
    10:00 +26°C° 0.1 mm 2 mps 766 mmHg 49%
    11:00 +27°C° 0.2 mm 3 mps 765 mmHg 49%
    12:00 +27°C° 0.2 mm 3 mps 765 mmHg 49%
    13:00 +27°C° 0 mm 3 mps 765 mmHg 50%
    14:00 +26°C° 0.4 mm 4 mps 765 mmHg 53%
    15:00 +26°C° 0.4 mm 4 mps 764 mmHg 56%
    16:00 +25°C° 0.4 mm 4 mps 764 mmHg 59%
    17:00 +23°C° 0.1 mm 4 mps 764 mmHg 65%
    18:00 +21°C° 0.1 mm 3 mps 764 mmHg 71%
    19:00 +20°C° 0.1 mm 3 mps 764 mmHg 77%
    20:00 +19°C° 0 mm 3 mps 764 mmHg 77%
    21:00 +19°C° 0 mm 3 mps 764 mmHg 77%
    22:00 +19°C° 0 mm 2 mps 764 mmHg 77%
    23:00 +18°C° 0 mm 2 mps 764 mmHg 76%

    Tomorrow, 20 April, Friday

    Time Temperature Precipitation Wind Pressure Humidity
    00:00 +18°C° 0 mm 2 mps 764 mmHg 76%
    01:00 +18°C° 0 mm 2 mps 764 mmHg 76%
    02:00 +17°C° 0 mm 3 mps 764 mmHg 76%
    03:00 +17°C° 0 mm 3 mps 763 mmHg 76%
    04:00 +17°C° 0 mm 3 mps 763 mmHg 76%
    05:00 +18°C° 0 mm 3 mps 763 mmHg 73%
    06:00 +19°C° 0 mm 3 mps 763 mmHg 70%
    07:00 +20°C° 0 mm 3 mps 762 mmHg 66%
    08:00 +22°C° 0 mm 3 mps 762 mmHg 58%
    09:00 +25°C° 0 mm 3 mps 762 mmHg 50%
    10:00 +26°C° 0 mm 4 mps 762 mmHg 42%
    11:00 +27°C° 0 mm 4 mps 762 mmHg 39%
    12:00 +28°C° 0 mm 5 mps 761 mmHg 37%
    13:00 +29°C° 0 mm 5 mps 761 mmHg 35%
    14:00 +28°C° 0 mm 5 mps 761 mmHg 38%
    15:00 +27°C° 0 mm 6 mps 761 mmHg 42%
    16:00 +27°C° 0 mm 6 mps 760 mmHg 45%
    17:00 +24°C° 0 mm 6 mps 760 mmHg 48%
    18:00 +23°C° 0 mm 5 mps 760 mmHg 51%
    19:00 +21°C° 0 mm 5 mps 761 mmHg 55%
    20:00 +20°C° 0 mm 5 mps 761 mmHg 53%
    21:00 +19°C° 0 mm 5 mps 761 mmHg 51%
    22:00 +17°C° 0 mm 5 mps 762 mmHg 48%
    23:00 +18°C° 0 mm 4 mps 762 mmHg 51%

    Day after tomorrow, 21 April, Saturday

    Time Temperature Precipitation Wind Pressure Humidity
    00:00 +17°C° 0 mm 4 mps 762 mmHg 53%
    01:00 +17°C° 0 mm 4 mps 762 mmHg 55%
    02:00 +17°C° 0 mm 4 mps 762 mmHg 58%
    03:00 +16°C° 0 mm 3 mps 762 mmHg 62%
    04:00 +16°C° 0 mm 3 mps 762 mmHg 65%
    05:00 +17°C° 0 mm 3 mps 763 mmHg 65%
    06:00 +18°C° 0 mm 2 mps 763 mmHg 66%
    07:00 +18°C° 0 mm 2 mps 763 mmHg 66%
    08:00 +20°C° 0 mm 2 mps 764 mmHg 59%
    09:00 +23°C° 0 mm 1 mps 764 mmHg 52%
    10:00 +24°C° 0 mm 1 mps 764 mmHg 45%
    11:00 +25°C° 0 mm 2 mps 764 mmHg 43%
    12:00 +25°C° 0 mm 3 mps 764 mmHg 41%
    13:00 +26°C° 0 mm 4 mps 764 mmHg 40%
    14:00 +25°C° 0 mm 4 mps 763 mmHg 45%
    15:00 +23°C° 0 mm 4 mps 763 mmHg 50%
    16:00 +22°C° 0 mm 3 mps 763 mmHg 56%
    17:00 +21°C° 0 mm 3 mps 763 mmHg 63%
    18:00 +19°C° 0 mm 2 mps 763 mmHg 70%
    19:00 +18°C° 0 mm 1 mps 763 mmHg 78%
    20:00 +18°C° 0 mm 1 mps 764 mmHg 79%
    21:00 +16°C° 0 mm 1 mps 764 mmHg 80%
    22:00 +16°C° 0 mm 1 mps 764 mmHg 82%
    23:00 +16°C° 0 mm 1 mps 764 mmHg 81%

    22 April, Sunday

    Time Temperature Precipitation Wind Pressure Humidity
    00:00 +15°C° 0 mm 0 mps 764 mmHg 81%
    01:00 +14°C° 0 mm 0 mps 764 mmHg 81%
    02:00 +14°C° 0 mm 0 mps 764 mmHg 80%
    03:00 +14°C° 0 mm 0 mps 764 mmHg 80%
    04:00 +15°C° 0 mm 1 mps 764 mmHg 80%
    05:00 +16°C° 0 mm 1 mps 764 mmHg 75%
    06:00 +18°C° 0 mm 1 mps 763 mmHg 70%
    07:00 +20°C° 0 mm 1 mps 763 mmHg 66%
    08:00 +21°C° 0 mm 1 mps 763 mmHg 61%
    09:00 +23°C° 0 mm 2 mps 764 mmHg 56%
    10:00 +24°C° 0 mm 2 mps 764 mmHg 51%
    11:00 +25°C° 0 mm 3 mps 763 mmHg 50%
    12:00 +26°C° 0 mm 3 mps 763 mmHg 49%
    13:00 +26°C° 0 mm 4 mps 763 mmHg 48%
    14:00 +26°C° 0 mm 4 mps 762 mmHg 52%
    15:00 +25°C° 0 mm 4 mps 762 mmHg 55%
    16:00 +25°C° 0 mm 4 mps 762 mmHg 58%
    17:00 +22°C° 0 mm 3 mps 762 mmHg 66%
    18:00 +20°C° 0 mm 3 mps 762 mmHg 73%
    19:00 +18°C° 0 mm 2 mps 762 mmHg 81%
    20:00 +17°C° 0 mm 2 mps 762 mmHg 82%
    21:00 +17°C° 0 mm 2 mps 763 mmHg 82%
    22:00 +18°C° 0 mm 1 mps 763 mmHg 83%
    23:00 +16°C° 0 mm 1 mps 763 mmHg 82%

    23 April, Monday

    Time Temperature Precipitation Wind Pressure Humidity
    00:00 +16°C° 0 mm 1 mps 763 mmHg 80%
    01:00 +16°C° 0 mm 1 mps 762 mmHg 79%
    02:00 +16°C° 0 mm 1 mps 762 mmHg 77%
    03:00 +15°C° 0 mm 1 mps 762 mmHg 75%
    04:00 +15°C° 0 mm 1 mps 762 mmHg 74%
    05:00 +18°C° 0 mm 1 mps 762 mmHg 68%
    06:00 +19°C° 0 mm 1 mps 762 mmHg 62%
    07:00 +21°C° 0 mm 1 mps 762 mmHg 56%
    08:00 +22°C° 0 mm 1 mps 762 mmHg 51%
    09:00 +24°C° 0 mm 2 mps 762 mmHg 46%
    10:00 +25°C° 0 mm 2 mps 762 mmHg 41%
    11:00 +26°C° 0 mm 3 mps 761 mmHg 41%
    12:00 +26°C° 0 mm 3 mps 761 mmHg 41%
    13:00 +27°C° 0 mm 4 mps 761 mmHg 42%
    14:00 +26°C° 0 mm 3 mps 761 mmHg 45%
    15:00 +26°C° 0 mm 3 mps 760 mmHg 48%
    16:00 +25°C° 0 mm 3 mps 760 mmHg 51%
    17:00 +22°C° 0 mm 3 mps 760 mmHg 59%
    18:00 +20°C° 0 mm 2 mps 760 mmHg 67%
    19:00 +19°C° 0 mm 1 mps 760 mmHg 75%
    20:00 +19°C° 0 mm 1 mps 761 mmHg 75%
    21:00 +18°C° 0 mm 1 mps 761 mmHg 76%
    22:00 +18°C° 0 mm 1 mps 761 mmHg 76%
    23:00 +16°C° 0 mm 1 mps 761 mmHg 75%

    24 April, Tuesday

    Time Temperature Precipitation Wind Pressure Humidity
    00:00 +16°C° 0 mm 1 mps 761 mmHg 73%
    01:00 +16°C° 0 mm 1 mps 761 mmHg 71%
    02:00 +15°C° 0 mm 1 mps 761 mmHg 69%
    03:00 +15°C° 0 mm 1 mps 761 mmHg 66%
    04:00 +15°C° 0 mm 1 mps 761 mmHg 63%
    05:00 +16°C° 0 mm 1 mps 761 mmHg 58%
    06:00 +19°C° 0 mm 1 mps 761 mmHg 54%
    07:00 +20°C° 0 mm 1 mps 761 mmHg 49%
    08:00 +22°C° 0 mm 1 mps 761 mmHg 45%
    09:00 +23°C° 0 mm 1 mps 761 mmHg 41%
    10:00 +25°C° 0 mm 2 mps 761 mmHg 36%
    11:00 +26°C° 0 mm 2 mps 761 mmHg 38%
    12:00 +26°C° 0 mm 3 mps 761 mmHg 39%
    13:00 +26°C° 0 mm 3 mps 761 mmHg 40%
    14:00 +26°C° 0 mm 3 mps 760 mmHg 43%
    15:00 +26°C° 0 mm 3 mps 760 mmHg 46%
    16:00 +25°C° 0 mm 3 mps 760 mmHg 49%
    17:00 +22°C° 0 mm 3 mps 760 mmHg 58%
    18:00 +20°C° 0 mm 2 mps 760 mmHg 66%
    19:00 +18°C° 0 mm 2 mps 761 mmHg 75%
    20:00 +18°C° 0 mm 2 mps 761 mmHg 76%
    21:00 +17°C° 0 mm 2 mps 761 mmHg 76%
    22:00 +17°C° 0 mm 2 mps 762 mmHg 76%
    23:00 +17°C° 0 mm 2 mps 761 mmHg 75%
    Show more